Time,TemperatureF,DewpointF,PressureIn,WindDirection,WindDirectionDegrees,WindSpeedMPH,WindSpeedGustMPH,Humidity,HourlyPrecipIn,Conditions,Clouds,dailyrainin,SoftwareType,DateUTC
2013-06-28 00:01:00,82.6,75.0,29.97,WSW,246,0.0,3.0,78,0.00,,,0.03,meteohub,2013-06-28 04:01:00,
2013-06-28 00:02:00,82.6,75.0,29.97,WSW,246,0.0,3.0,78,0.00,,,0.03,meteohub,2013-06-28 04:02:00,
2013-06-28 00:03:00,82.6,75.0,29.98,WSW,246,0.0,3.0,78,0.00,,,0.03,meteohub,2013-06-28 04:03:00,
2013-06-28 00:04:00,82.6,75.0,29.98,WSW,246,0.0,3.0,78,0.00,,,0.03,meteohub,2013-06-28 04:04:00,
2013-06-28 00:09:00,82.6,75.0,29.97,WSW,246,1.0,4.0,78,0.00,,,0.00,meteohub,2013-06-28 04:09:00,
2013-06-28 00:14:00,82.8,75.2,29.98,WSW,246,0.0,5.0,78,0.00,,,0.00,meteohub,2013-06-28 04:14:00,
2013-06-28 00:19:00,82.6,75.0,29.99,WSW,246,0.0,5.0,78,0.00,,,0.00,meteohub,2013-06-28 04:19:00,
2013-06-28 00:24:00,82.4,74.8,29.99,WSW,246,0.0,5.0,78,0.00,,,0.00,meteohub,2013-06-28 04:24:00,
2013-06-28 00:29:00,82.2,74.7,29.99,WSW,246,0.0,3.0,78,0.00,,,0.00,meteohub,2013-06-28 04:29:00,
2013-06-28 00:34:00,82.0,74.5,29.99,WSW,246,0.0,1.0,78,0.00,,,0.00,meteohub,2013-06-28 04:34:00,
2013-06-28 00:39:00,81.7,74.5,29.99,WSW,246,0.0,1.0,79,0.00,,,0.00,meteohub,2013-06-28 04:39:00,
2013-06-28 00:45:00,81.7,74.5,29.99,WSW,246,0.0,0.0,79,0.00,,,0.00,meteohub,2013-06-28 04:45:00,
2013-06-28 00:50:00,81.7,74.8,29.99,WSW,246,0.0,0.0,80,0.00,,,0.00,meteohub,2013-06-28 04:50:00,
2013-06-28 00:55:00,82.0,75.6,29.99,WSW,246,0.0,0.0,81,0.00,,,0.00,meteohub,2013-06-28 04:55:00,
2013-06-28 01:00:00,81.9,75.0,29.99,WSW,246,0.0,0.0,80,0.00,,,0.00,meteohub,2013-06-28 05:00:00,
2013-06-28 01:05:00,81.7,75.2,29.99,WSW,246,0.0,2.0,81,0.00,,,0.00,meteohub,2013-06-28 05:05:00,
2013-06-28 01:10:00,81.9,75.4,29.98,WSW,246,0.0,2.0,81,0.00,,,0.00,meteohub,2013-06-28 05:10:00,
2013-06-28 01:15:00,81.9,75.4,29.98,WSW,246,0.0,1.0,81,0.00,,,0.00,meteohub,2013-06-28 05:15:00,
2013-06-28 01:20:00,81.9,75.4,29.98,WSW,246,0.0,1.0,81,0.00,,,0.00,meteohub,2013-06-28 05:20:00,
2013-06-28 01:26:00,81.7,75.2,29.98,WSW,246,0.0,1.0,81,0.00,,,0.00,meteohub,2013-06-28 05:26:00,
2013-06-28 01:31:00,81.7,75.2,29.98,WSW,246,0.0,0.0,81,0.00,,,0.00,meteohub,2013-06-28 05:31:00,
2013-06-28 01:36:00,81.7,75.2,29.98,WSW,246,0.0,1.0,81,0.00,,,0.00,meteohub,2013-06-28 05:36:00,
2013-06-28 01:41:00,81.7,75.6,29.98,WSW,246,0.0,1.0,82,0.00,,,0.00,meteohub,2013-06-28 05:41:00,
2013-06-28 01:46:00,81.7,75.6,29.98,WSW,246,0.0,1.0,82,0.00,,,0.00,meteohub,2013-06-28 05:46:00,
2013-06-28 01:51:00,81.7,75.2,29.98,WSW,246,0.0,1.0,81,0.00,,,0.00,meteohub,2013-06-28 05:51:00,
2013-06-28 01:56:00,81.9,75.4,29.98,WSW,246,0.0,1.0,81,0.00,,,0.00,meteohub,2013-06-28 05:56:00,
2013-06-28 02:01:00,82.0,75.6,29.98,WSW,246,0.0,2.0,81,0.00,,,0.00,meteohub,2013-06-28 06:01:00,
2013-06-28 02:06:00,82.2,75.4,29.98,WSW,246,0.0,2.0,80,0.00,,,0.00,meteohub,2013-06-28 06:06:00,
2013-06-28 02:11:00,82.2,75.4,29.98,WSW,246,1.0,3.0,80,0.00,,,0.00,meteohub,2013-06-28 06:11:00,
2013-06-28 02:17:00,82.2,75.4,29.98,WSW,246,0.0,3.0,80,0.00,,,0.00,meteohub,2013-06-28 06:17:00,
2013-06-28 02:22:00,82.2,75.4,29.98,WSW,246,0.0,3.0,80,0.00,,,0.00,meteohub,2013-06-28 06:22:00,
2013-06-28 02:27:00,82.0,75.2,29.98,WSW,246,0.0,3.0,80,0.00,,,0.00,meteohub,2013-06-28 06:27:00,
2013-06-28 02:32:00,82.0,75.6,29.97,WSW,246,0.0,3.0,81,0.00,,,0.00,meteohub,2013-06-28 06:32:00,
2013-06-28 02:37:00,82.0,75.2,29.97,WSW,246,1.0,3.0,80,0.00,,,0.00,meteohub,2013-06-28 06:37:00,
2013-06-28 02:42:00,82.0,74.8,29.97,WSW,246,1.0,4.0,79,0.00,,,0.00,meteohub,2013-06-28 06:42:00,
2013-06-28 02:47:00,82.0,75.2,29.96,WSW,246,0.0,4.0,80,0.00,,,0.00,meteohub,2013-06-28 06:47:00,
2013-06-28 02:52:00,81.9,75.0,29.96,WSW,246,0.0,4.0,80,0.00,,,0.00,meteohub,2013-06-28 06:52:00,
2013-06-28 02:57:00,81.7,74.8,29.96,WSW,246,0.0,3.0,80,0.00,,,0.00,meteohub,2013-06-28 06:57:00,
2013-06-28 03:02:00,81.7,75.2,29.96,WSW,246,1.0,1.0,81,0.00,,,0.00,meteohub,2013-06-28 07:02:00,
2013-06-28 03:07:00,81.9,75.4,29.96,WSW,246,0.0,6.0,81,0.00,,,0.00,meteohub,2013-06-28 07:07:00,
2013-06-28 03:12:00,82.0,75.6,29.97,WSW,246,2.0,6.0,81,0.00,,,0.00,meteohub,2013-06-28 07:12:00,
2013-06-28 03:17:00,81.9,75.0,29.97,WSW,246,0.0,6.0,80,0.00,,,0.00,meteohub,2013-06-28 07:17:00,
2013-06-28 03:22:00,82.0,75.6,29.97,WSW,246,3.0,5.0,81,0.00,,,0.00,meteohub,2013-06-28 07:22:00,
2013-06-28 03:27:00,82.0,75.6,29.97,WSW,246,1.0,5.0,81,0.00,,,0.00,meteohub,2013-06-28 07:27:00,
2013-06-28 03:32:00,82.0,75.6,29.96,WSW,246,1.0,5.0,81,0.00,,,0.00,meteohub,2013-06-28 07:32:00,
2013-06-28 03:37:00,82.0,75.6,29.96,WSW,246,0.0,5.0,81,0.00,,,0.00,meteohub,2013-06-28 07:37:00,
2013-06-28 03:42:00,81.9,75.4,29.96,WSW,246,0.0,3.0,81,0.00,,,0.00,meteohub,2013-06-28 07:42:00,
2013-06-28 03:47:00,81.9,75.4,29.96,WSW,246,0.0,3.0,81,0.00,,,0.00,meteohub,2013-06-28 07:47:00,
2013-06-28 03:52:00,81.7,75.2,29.96,WSW,246,0.0,1.0,81,0.00,,,0.00,meteohub,2013-06-28 07:52:00,
2013-06-28 03:57:00,81.3,74.8,29.96,WSW,246,0.0,1.0,81,0.00,,,0.00,meteohub,2013-06-28 07:57:00,
2013-06-28 04:02:00,81.3,75.4,29.96,WSW,246,0.0,0.0,82,0.00,,,0.00,meteohub,2013-06-28 08:02:00,
2013-06-28 04:07:00,81.1,75.2,29.96,WSW,246,0.0,0.0,82,0.00,,,0.00,meteohub,2013-06-28 08:07:00,
2013-06-28 04:12:00,81.1,75.2,29.96,WSW,246,0.0,2.0,82,0.00,,,0.00,meteohub,2013-06-28 08:12:00,
2013-06-28 04:17:00,81.3,75.4,29.96,WSW,246,0.0,2.0,82,0.00,,,0.00,meteohub,2013-06-28 08:17:00,
2013-06-28 04:22:00,81.3,74.8,29.95,WSW,246,0.0,4.0,81,0.00,,,0.00,meteohub,2013-06-28 08:22:00,
2013-06-28 04:27:00,81.3,74.8,29.95,WSW,246,0.0,4.0,81,0.00,,,0.00,meteohub,2013-06-28 08:27:00,
2013-06-28 04:32:00,81.3,75.4,29.95,WSW,246,0.0,2.0,82,0.00,,,0.00,meteohub,2013-06-28 08:32:00,
2013-06-28 04:37:00,81.5,75.9,29.95,WSW,246,3.0,4.0,83,0.00,,,0.00,meteohub,2013-06-28 08:37:00,
2013-06-28 04:42:00,81.5,76.3,29.95,WSW,246,4.0,7.0,84,0.00,,,0.00,meteohub,2013-06-28 08:42:00,
2013-06-28 04:47:00,81.3,76.1,29.94,WSW,246,1.0,7.0,84,0.00,,,0.00,meteohub,2013-06-28 08:47:00,
2013-06-28 04:52:00,81.1,76.3,29.95,SW,229,4.0,7.0,85,0.00,,,0.00,meteohub,2013-06-28 08:52:00,
2013-06-28 04:57:00,81.0,76.1,29.94,SW,226,3.0,6.0,85,0.00,,,0.00,meteohub,2013-06-28 08:57:00,
2013-06-28 05:02:00,81.0,75.7,29.95,SW,226,2.0,6.0,84,0.00,,,0.00,meteohub,2013-06-28 09:02:00,
2013-06-28 05:07:00,81.0,75.7,29.95,SW,226,2.0,6.0,84,0.00,,,0.00,meteohub,2013-06-28 09:07:00,
2013-06-28 05:12:00,81.0,75.7,29.95,SW,226,1.0,5.0,84,0.00,,,0.00,meteohub,2013-06-28 09:12:00,
2013-06-28 05:17:00,81.0,76.1,29.94,SW,226,3.0,5.0,85,0.00,,,0.00,meteohub,2013-06-28 09:17:00,
2013-06-28 05:22:00,80.8,75.6,29.94,SW,226,2.0,4.0,84,0.00,,,0.00,meteohub,2013-06-28 09:22:00,
2013-06-28 05:27:00,80.8,75.9,29.94,SW,226,4.0,4.0,85,0.00,,,0.00,meteohub,2013-06-28 09:27:00,
2013-06-28 05:32:00,80.6,75.4,29.94,SW,226,0.0,4.0,84,0.00,,,0.00,meteohub,2013-06-28 09:32:00,
2013-06-28 05:37:00,80.4,75.2,29.94,SW,226,0.0,4.0,84,0.00,,,0.00,meteohub,2013-06-28 09:37:00,
2013-06-28 05:42:00,80.4,75.2,29.95,SW,226,0.0,4.0,84,0.00,,,0.00,meteohub,2013-06-28 09:42:00,
2013-06-28 05:47:00,80.2,75.4,29.95,SW,226,0.0,2.0,85,0.00,,,0.00,meteohub,2013-06-28 09:47:00,
2013-06-28 05:52:00,80.1,75.2,29.95,SW,226,0.0,1.0,85,0.00,,,0.00,meteohub,2013-06-28 09:52:00,
2013-06-28 05:57:00,80.1,75.2,29.95,SW,226,0.0,1.0,85,0.00,,,0.00,meteohub,2013-06-28 09:57:00,
2013-06-28 06:02:00,80.1,75.6,29.96,SW,226,3.0,3.0,86,0.00,,,0.00,meteohub,2013-06-28 10:02:00,
2013-06-28 06:07:00,80.1,75.2,29.96,SW,226,2.0,4.0,85,0.00,,,0.00,meteohub,2013-06-28 10:07:00,
2013-06-28 06:12:00,80.2,75.0,29.96,SW,226,0.0,5.0,84,0.00,,,0.00,meteohub,2013-06-28 10:12:00,
2013-06-28 06:17:00,80.2,75.0,29.96,SW,226,1.0,5.0,84,0.00,,,0.00,meteohub,2013-06-28 10:17:00,
2013-06-28 06:22:00,80.4,75.2,29.96,SW,226,0.0,4.0,84,0.00,,,0.00,meteohub,2013-06-28 10:22:00,
2013-06-28 06:27:00,80.4,75.2,29.96,SW,226,1.0,3.0,84,0.00,,,0.00,meteohub,2013-06-28 10:27:00,
2013-06-28 06:33:00,80.4,75.2,29.96,SW,226,1.0,3.0,84,0.00,,,0.00,meteohub,2013-06-28 10:33:00,
2013-06-28 06:38:00,80.4,75.2,29.96,SW,226,0.0,4.0,84,0.00,,,0.00,meteohub,2013-06-28 10:38:00,
2013-06-28 06:43:00,80.6,75.0,29.96,SW,226,0.0,4.0,83,0.00,,,0.00,meteohub,2013-06-28 10:43:00,
2013-06-28 06:48:00,80.8,75.2,29.96,SW,226,0.0,4.0,83,0.00,,,0.00,meteohub,2013-06-28 10:48:00,
2013-06-28 06:53:00,80.8,75.2,29.96,SW,226,1.0,3.0,83,0.00,,,0.00,meteohub,2013-06-28 10:53:00,
2013-06-28 06:58:00,81.0,75.4,29.96,SW,226,5.0,5.0,83,0.00,,,0.00,meteohub,2013-06-28 10:58:00,
2013-06-28 07:03:00,81.1,75.6,29.95,SW,226,4.0,4.0,83,0.00,,,0.00,meteohub,2013-06-28 11:03:00,
2013-06-28 07:08:00,81.1,75.9,29.96,SW,226,3.0,5.0,84,0.00,,,0.00,meteohub,2013-06-28 11:08:00,
2013-06-28 07:13:00,81.0,75.4,29.96,SW,226,1.0,5.0,83,0.00,,,0.00,meteohub,2013-06-28 11:13:00,
2013-06-28 07:18:00,81.1,75.9,29.96,SW,226,1.0,5.0,84,0.00,,,0.00,meteohub,2013-06-28 11:18:00,
2013-06-28 07:23:00,81.3,76.1,29.97,SW,226,0.0,5.0,84,0.00,,,0.00,meteohub,2013-06-28 11:23:00,
2013-06-28 07:29:00,81.1,75.6,29.97,SW,226,1.0,5.0,83,0.00,,,0.00,meteohub,2013-06-28 11:29:00,
2013-06-28 07:34:00,81.5,76.3,29.96,SW,226,1.0,4.0,84,0.00,,,0.00,meteohub,2013-06-28 11:34:00,
2013-06-28 07:39:00,81.3,76.1,29.96,SW,226,2.0,4.0,84,0.00,,,0.00,meteohub,2013-06-28 11:39:00,
2013-06-28 07:44:00,81.3,76.1,29.96,SW,226,6.0,6.0,84,0.00,,,0.00,meteohub,2013-06-28 11:44:00,
2013-06-28 07:49:00,81.3,76.1,29.96,SSW,211,6.0,6.0,84,0.00,,,0.00,meteohub,2013-06-28 11:49:00,
2013-06-28 07:54:00,81.3,76.1,29.96,SSW,208,5.0,7.0,84,0.00,,,0.00,meteohub,2013-06-28 11:54:00,
2013-06-28 07:59:00,81.3,75.7,29.96,SSW,208,4.0,7.0,83,0.00,,,0.00,meteohub,2013-06-28 11:59:00,
2013-06-28 08:04:00,81.5,75.4,29.96,SSW,208,1.0,7.0,82,0.00,,,0.00,meteohub,2013-06-28 12:04:00,
2013-06-28 08:09:00,81.9,75.7,29.96,SSW,208,0.0,6.0,82,0.00,,,0.00,meteohub,2013-06-28 12:09:00,
2013-06-28 08:15:00,82.0,75.6,29.96,SSW,208,0.0,5.0,81,0.00,,,0.00,meteohub,2013-06-28 12:15:00,
2013-06-28 08:20:00,82.0,75.6,29.96,SSW,208,0.0,5.0,81,0.00,,,0.00,meteohub,2013-06-28 12:20:00,
2013-06-28 08:25:00,82.2,75.7,29.96,SSW,208,0.0,4.0,81,0.00,,,0.00,meteohub,2013-06-28 12:25:00,
2013-06-28 08:30:00,82.6,75.7,29.96,SSW,208,0.0,4.0,80,0.00,,,0.00,meteohub,2013-06-28 12:30:00,
2013-06-28 08:35:00,82.8,75.9,29.96,SSW,208,3.0,4.0,80,0.00,,,0.00,meteohub,2013-06-28 12:35:00,
2013-06-28 08:40:00,82.8,75.6,29.96,SSW,208,0.0,5.0,79,0.00,,,0.00,meteohub,2013-06-28 12:40:00,
2013-06-28 08:45:00,82.9,75.7,29.96,SSW,208,0.0,5.0,79,0.00,,,0.00,meteohub,2013-06-28 12:45:00,
2013-06-28 08:50:00,83.1,75.9,29.96,SSW,208,1.0,5.0,79,0.00,,,0.00,meteohub,2013-06-28 12:50:00,
2013-06-28 08:55:00,83.5,75.9,29.96,SSW,208,0.0,4.0,78,0.00,,,0.00,meteohub,2013-06-28 12:55:00,
2013-06-28 09:00:00,83.7,76.1,29.96,SSW,208,3.0,4.0,78,0.00,,,0.00,meteohub,2013-06-28 13:00:00,
2013-06-28 09:06:00,84.0,76.1,29.96,SSW,205,5.0,7.0,77,0.00,,,0.00,meteohub,2013-06-28 13:06:00,
2013-06-28 09:11:00,84.4,75.9,29.96,SSW,205,4.0,7.0,76,0.00,,,0.00,meteohub,2013-06-28 13:11:00,
2013-06-28 09:16:00,84.4,75.2,29.96,SSW,207,6.0,7.0,74,0.00,,,0.00,meteohub,2013-06-28 13:16:00,
2013-06-28 09:21:00,84.4,75.2,29.96,SSW,209,3.0,8.0,74,0.00,,,0.00,meteohub,2013-06-28 13:21:00,
2013-06-28 09:26:00,84.7,75.9,29.96,SSW,209,5.0,8.0,75,0.00,,,0.00,meteohub,2013-06-28 13:26:00,
2013-06-28 09:31:00,85.5,75.7,29.96,SSW,209,4.0,7.0,73,0.00,,,0.00,meteohub,2013-06-28 13:31:00,
2013-06-28 09:36:00,85.6,75.6,29.96,West,263,2.0,7.0,72,0.00,,,0.00,meteohub,2013-06-28 13:36:00,
2013-06-28 09:42:00,85.8,75.4,29.96,West,274,4.0,7.0,71,0.00,,,0.00,meteohub,2013-06-28 13:42:00,
2013-06-28 09:47:00,86.0,75.6,29.96,SW,221,4.0,8.0,71,0.00,,,0.00,meteohub,2013-06-28 13:47:00,
2013-06-28 09:52:00,86.4,75.4,29.96,WSW,244,4.0,8.0,70,0.00,,,0.00,meteohub,2013-06-28 13:52:00,
2013-06-28 09:57:00,86.5,75.6,29.96,SW,228,4.0,8.0,70,0.00,,,0.00,meteohub,2013-06-28 13:57:00,
2013-06-28 10:02:00,86.4,75.4,29.96,West,260,1.0,10.0,70,0.00,,,0.00,meteohub,2013-06-28 14:02:00,
2013-06-28 10:07:00,86.5,75.6,29.95,SW,234,2.0,10.0,70,0.00,,,0.00,meteohub,2013-06-28 14:07:00,
2013-06-28 10:12:00,86.7,75.7,29.95,SW,235,1.0,10.0,70,0.00,,,0.00,meteohub,2013-06-28 14:12:00,
2013-06-28 10:17:00,86.5,75.2,29.95,WSW,239,2.0,9.0,69,0.00,,,0.00,meteohub,2013-06-28 14:17:00,
2013-06-28 10:22:00,86.5,74.7,29.95,WSW,246,6.0,10.0,68,0.00,,,0.00,meteohub,2013-06-28 14:22:00,
2013-06-28 10:27:00,86.4,75.0,29.95,SW,228,4.0,10.0,69,0.00,,,0.00,meteohub,2013-06-28 14:27:00,
2013-06-28 10:32:00,86.5,74.3,29.95,SW,225,2.0,10.0,67,0.00,,,0.00,meteohub,2013-06-28 14:32:00,
2013-06-28 10:37:00,87.1,75.7,29.94,SW,223,4.0,10.0,69,0.00,,,0.00,meteohub,2013-06-28 14:37:00,
2013-06-28 10:42:00,87.3,75.4,29.94,SW,221,4.0,8.0,68,0.00,,,0.00,meteohub,2013-06-28 14:42:00,
2013-06-28 10:47:00,87.1,75.2,29.94,SW,234,5.0,9.0,68,0.00,,,0.00,meteohub,2013-06-28 14:47:00,
2013-06-28 10:52:00,87.1,75.7,29.95,SW,234,4.0,9.0,69,0.00,,,0.00,meteohub,2013-06-28 14:52:00,
2013-06-28 10:57:00,87.1,75.2,29.95,SSW,205,2.0,9.0,68,0.00,,,0.00,meteohub,2013-06-28 14:57:00,
2013-06-28 11:02:00,87.4,75.6,29.95,SSW,211,1.0,9.0,68,0.00,,,0.00,meteohub,2013-06-28 15:02:00,
2013-06-28 11:07:00,87.6,75.7,29.95,SW,232,6.0,11.0,68,0.00,,,0.00,meteohub,2013-06-28 15:07:00,
2013-06-28 11:12:00,87.4,75.6,29.95,SW,219,3.0,11.0,68,0.00,,,0.00,meteohub,2013-06-28 15:12:00,
2013-06-28 11:17:00,87.6,75.7,29.95,SW,236,7.0,10.0,68,0.00,,,0.00,meteohub,2013-06-28 15:17:00,
2013-06-28 11:22:00,88.2,74.8,29.95,SW,229,4.0,12.0,65,0.00,,,0.00,meteohub,2013-06-28 15:22:00,
2013-06-28 11:27:00,88.9,76.1,29.95,SW,232,6.0,12.0,66,0.00,,,0.00,meteohub,2013-06-28 15:27:00,
2013-06-28 11:32:00,88.9,75.6,29.95,SW,215,6.0,12.0,65,0.00,,,0.00,meteohub,2013-06-28 15:32:00,
2013-06-28 11:37:00,88.9,76.1,29.96,SW,225,10.0,11.0,66,0.00,,,0.00,meteohub,2013-06-28 15:37:00,
2013-06-28 11:42:00,88.7,75.4,29.96,West,259,6.0,11.0,65,0.00,,,0.00,meteohub,2013-06-28 15:42:00,
2013-06-28 11:47:00,88.9,74.7,29.95,SSW,207,7.0,11.0,63,0.00,,,0.00,meteohub,2013-06-28 15:47:00,
2013-06-28 11:52:00,89.2,75.9,29.95,SSW,209,4.0,11.0,65,0.00,,,0.00,meteohub,2013-06-28 15:52:00,
2013-06-28 11:57:00,89.2,75.9,29.95,West,263,4.0,10.0,65,0.00,,,0.00,meteohub,2013-06-28 15:57:00,
2013-06-28 12:02:00,89.2,75.9,29.95,SW,221,5.0,10.0,65,0.00,,,0.00,meteohub,2013-06-28 16:02:00,
2013-06-28 12:07:00,89.1,75.2,29.95,WSW,241,7.0,10.0,64,0.00,,,0.00,meteohub,2013-06-28 16:07:00,
2013-06-28 12:12:00,89.4,76.1,29.94,West,259,8.0,11.0,65,0.00,,,0.00,meteohub,2013-06-28 16:12:00,
2013-06-28 12:17:00,89.4,75.6,29.94,SW,222,6.0,11.0,64,0.00,,,0.00,meteohub,2013-06-28 16:17:00,
2013-06-28 12:22:00,89.1,75.7,29.94,SW,225,2.0,12.0,65,0.00,,,0.00,meteohub,2013-06-28 16:22:00,
2013-06-28 12:27:00,88.7,76.3,29.94,West,274,7.0,12.0,67,0.00,,,0.00,meteohub,2013-06-28 16:27:00,
2013-06-28 12:32:00,88.5,75.7,29.94,SW,224,5.0,12.0,66,0.00,,,0.00,meteohub,2013-06-28 16:32:00,
2013-06-28 12:37:00,87.6,75.7,29.94,SSW,210,8.0,13.0,68,0.00,,,0.00,meteohub,2013-06-28 16:37:00,
2013-06-28 12:42:00,87.6,76.1,29.94,WSW,238,6.0,13.0,69,0.00,,,0.00,meteohub,2013-06-28 16:42:00,
2013-06-28 12:47:00,87.8,75.4,29.94,West,275,5.0,14.0,67,0.00,,,0.00,meteohub,2013-06-28 16:47:00,
2013-06-28 12:52:00,88.2,75.7,29.94,WNW,291,7.0,14.0,67,0.00,,,0.00,meteohub,2013-06-28 16:52:00,
2013-06-28 12:57:00,88.7,75.9,29.94,WSW,240,7.0,14.0,66,0.00,,,0.00,meteohub,2013-06-28 16:57:00,
2013-06-28 13:02:00,89.1,75.2,29.94,West,273,4.0,12.0,64,0.00,,,0.00,meteohub,2013-06-28 17:02:00,
2013-06-28 13:07:00,89.4,75.6,29.94,SW,219,3.0,12.0,64,0.00,,,0.00,meteohub,2013-06-28 17:07:00,
2013-06-28 13:12:00,89.4,75.2,29.94,West,275,4.0,15.0,63,0.00,,,0.00,meteohub,2013-06-28 17:12:00,
2013-06-28 13:17:00,89.4,75.6,29.94,WSW,252,5.0,15.0,64,0.00,,,0.00,meteohub,2013-06-28 17:17:00,
2013-06-28 13:22:00,89.8,76.5,29.94,West,268,6.0,15.0,65,0.00,,,0.00,meteohub,2013-06-28 17:22:00,
2013-06-28 13:27:00,90.7,75.4,29.94,SW,236,8.0,12.0,61,0.00,,,0.00,meteohub,2013-06-28 17:27:00,
2013-06-28 13:32:00,90.5,75.2,29.94,West,281,6.0,12.0,61,0.00,,,0.00,meteohub,2013-06-28 17:32:00,
2013-06-28 13:37:00,90.3,75.0,29.94,West,268,10.0,12.0,61,0.00,,,0.00,meteohub,2013-06-28 17:37:00,
2013-06-28 13:42:00,90.3,75.6,29.94,WSW,237,9.0,13.0,62,0.00,,,0.00,meteohub,2013-06-28 17:42:00,
2013-06-28 13:47:00,90.1,75.4,29.94,West,265,6.0,13.0,62,0.00,,,0.00,meteohub,2013-06-28 17:47:00,
2013-06-28 13:52:00,89.2,75.0,29.93,West,277,3.0,13.0,63,0.00,,,0.00,meteohub,2013-06-28 17:52:00,
2013-06-28 13:58:00,89.1,76.3,29.93,West,277,9.0,14.0,66,0.00,,,0.00,meteohub,2013-06-28 17:58:00,
2013-06-28 14:03:00,89.2,75.4,29.93,West,261,3.0,14.0,64,0.00,,,0.00,meteohub,2013-06-28 18:03:00,
2013-06-28 14:08:00,89.2,74.5,29.93,SW,223,3.0,14.0,62,0.00,,,0.00,meteohub,2013-06-28 18:08:00,
2013-06-28 14:13:00,90.0,75.7,29.93,WSW,248,6.0,11.0,63,0.00,,,0.00,meteohub,2013-06-28 18:13:00,
2013-06-28 14:18:00,89.8,76.5,29.92,West,281,5.0,11.0,65,0.00,,,0.00,meteohub,2013-06-28 18:18:00,
2013-06-28 14:23:00,90.3,75.9,29.92,WNW,286,7.0,11.0,63,0.00,,,0.00,meteohub,2013-06-28 18:23:00,
2013-06-28 14:28:00,90.0,77.0,29.92,West,277,8.0,11.0,66,0.00,,,0.00,meteohub,2013-06-28 18:28:00,
2013-06-28 14:33:00,89.4,77.0,29.92,WSW,243,5.0,14.0,67,0.00,,,0.00,meteohub,2013-06-28 18:33:00,
2013-06-28 14:38:00,89.8,76.8,29.92,West,277,11.0,14.0,66,0.00,,,0.00,meteohub,2013-06-28 18:38:00,
2013-06-28 14:44:00,89.1,76.3,29.91,WNW,284,3.0,14.0,66,0.00,,,0.00,meteohub,2013-06-28 18:44:00,
2013-06-28 14:49:00,89.8,77.4,29.91,West,279,6.0,11.0,67,0.00,,,0.00,meteohub,2013-06-28 18:49:00,
2013-06-28 14:54:00,90.0,76.6,29.91,NW,317,7.0,11.0,65,0.00,,,0.00,meteohub,2013-06-28 18:54:00,
2013-06-28 14:59:00,89.6,76.6,29.91,WSW,244,10.0,11.0,66,0.00,,,0.00,meteohub,2013-06-28 18:59:00,
2013-06-28 15:04:00,89.8,76.8,29.90,West,277,5.0,11.0,66,0.00,,,0.00,meteohub,2013-06-28 19:04:00,
2013-06-28 15:09:00,89.8,76.5,29.90,WSW,253,5.0,12.0,65,0.00,,,0.00,meteohub,2013-06-28 19:09:00,
2013-06-28 15:14:00,88.7,76.8,29.90,West,267,2.0,12.0,68,0.00,,,0.00,meteohub,2013-06-28 19:14:00,
2013-06-28 15:19:00,89.1,75.2,29.90,SSW,199,4.0,12.0,64,0.00,,,0.00,meteohub,2013-06-28 19:19:00,
2013-06-28 15:24:00,89.4,74.7,29.90,West,263,6.0,13.0,62,0.00,,,0.00,meteohub,2013-06-28 19:24:00,
2013-06-28 15:29:00,89.1,75.2,29.90,WSW,246,5.0,13.0,64,0.00,,,0.00,meteohub,2013-06-28 19:29:00,
2013-06-28 15:35:00,88.2,75.7,29.90,West,273,3.0,13.0,67,0.00,,,0.00,meteohub,2013-06-28 19:35:00,
2013-06-28 15:40:00,88.5,76.1,29.90,WSW,252,4.0,12.0,67,0.00,,,0.00,meteohub,2013-06-28 19:40:00,
2013-06-28 15:45:00,88.9,75.6,29.90,West,266,2.0,12.0,65,0.00,,,0.00,meteohub,2013-06-28 19:45:00,
2013-06-28 15:50:00,89.4,75.6,29.90,WNW,286,7.0,13.0,64,0.00,,,0.00,meteohub,2013-06-28 19:50:00,
2013-06-28 15:55:00,89.8,75.9,29.90,West,274,6.0,13.0,64,0.00,,,0.00,meteohub,2013-06-28 19:55:00,
2013-06-28 16:00:00,89.2,75.9,29.90,West,271,8.0,11.0,65,0.00,,,0.00,meteohub,2013-06-28 20:00:00,
2013-06-28 16:05:00,88.7,76.3,29.90,West,265,3.0,14.0,67,0.00,,,0.00,meteohub,2013-06-28 20:05:00,
2013-06-28 16:10:00,89.4,76.6,29.90,West,281,8.0,14.0,66,0.00,,,0.00,meteohub,2013-06-28 20:10:00,
2013-06-28 16:15:00,88.9,76.1,29.89,West,266,5.0,14.0,66,0.00,,,0.00,meteohub,2013-06-28 20:15:00,
2013-06-28 16:21:00,88.7,75.9,29.89,WNW,282,6.0,14.0,66,0.00,,,0.00,meteohub,2013-06-28 20:21:00,
2013-06-28 16:26:00,88.9,76.5,29.89,West,268,2.0,14.0,67,0.00,,,0.00,meteohub,2013-06-28 20:26:00,
2013-06-28 16:31:00,89.1,76.3,29.88,West,264,3.0,11.0,66,0.00,,,0.00,meteohub,2013-06-28 20:31:00,
2013-06-28 16:36:00,88.9,76.1,29.88,West,277,3.0,10.0,66,0.00,,,0.00,meteohub,2013-06-28 20:36:00,
2013-06-28 16:41:00,88.9,76.1,29.88,West,265,5.0,10.0,66,0.00,,,0.00,meteohub,2013-06-28 20:41:00,
2013-06-28 16:46:00,88.2,76.6,29.88,West,269,2.0,10.0,69,0.00,,,0.00,meteohub,2013-06-28 20:46:00,
2013-06-28 16:51:00,87.6,76.1,29.88,West,279,6.0,12.0,69,0.00,,,0.00,meteohub,2013-06-28 20:51:00,
2013-06-28 16:56:00,87.6,76.1,29.87,WNW,288,5.0,12.0,69,0.00,,,0.00,meteohub,2013-06-28 20:56:00,
2013-06-28 17:01:00,87.6,76.6,29.87,WSW,255,6.0,12.0,70,0.00,,,0.00,meteohub,2013-06-28 21:01:00,
2013-06-28 17:06:00,87.8,77.2,29.87,West,275,2.0,8.0,71,0.00,,,0.00,meteohub,2013-06-28 21:06:00,
2013-06-28 17:11:00,88.0,77.0,29.87,WSW,254,2.0,8.0,70,0.00,,,0.00,meteohub,2013-06-28 21:11:00,
2013-06-28 17:17:00,88.0,77.0,29.87,WSW,258,3.0,8.0,70,0.00,,,0.00,meteohub,2013-06-28 21:17:00,
2013-06-28 17:22:00,87.6,76.6,29.86,West,265,3.0,9.0,70,0.00,,,0.00,meteohub,2013-06-28 21:22:00,
2013-06-28 17:27:00,88.0,77.0,29.86,West,273,1.0,9.0,70,0.00,,,0.00,meteohub,2013-06-28 21:27:00,
2013-06-28 17:32:00,88.2,76.6,29.86,WSW,240,5.0,9.0,69,0.00,,,0.00,meteohub,2013-06-28 21:32:00,
2013-06-28 17:37:00,88.2,76.6,29.86,WNW,286,4.0,8.0,69,0.00,,,0.00,meteohub,2013-06-28 21:37:00,
2013-06-28 17:42:00,88.2,76.6,29.86,West,267,3.0,8.0,69,0.00,,,0.00,meteohub,2013-06-28 21:42:00,
2013-06-28 17:47:00,88.2,76.6,29.86,WSW,255,6.0,8.0,69,0.00,,,0.00,meteohub,2013-06-28 21:47:00,
2013-06-28 17:52:00,87.8,76.8,29.86,WSW,252,3.0,9.0,70,0.00,,,0.00,meteohub,2013-06-28 21:52:00,
2013-06-28 17:57:00,88.2,75.7,29.86,WNW,282,2.0,9.0,67,0.00,,,0.00,meteohub,2013-06-28 21:57:00,
2013-06-28 18:02:00,88.2,75.4,29.86,WNW,288,6.0,9.0,66,0.00,,,0.00,meteohub,2013-06-28 22:02:00,
2013-06-28 18:07:00,87.4,75.2,29.86,WNW,288,4.0,9.0,67,0.00,,,0.00,meteohub,2013-06-28 22:07:00,
2013-06-28 18:12:00,87.1,75.2,29.86,West,270,5.0,8.0,68,0.00,,,0.00,meteohub,2013-06-28 22:12:00,
2013-06-28 18:17:00,87.1,75.2,29.86,West,259,4.0,8.0,68,0.00,,,0.00,meteohub,2013-06-28 22:17:00,
2013-06-28 18:22:00,87.4,75.6,29.87,WSW,254,1.0,8.0,68,0.00,,,0.00,meteohub,2013-06-28 22:22:00,
2013-06-28 18:27:00,87.3,75.4,29.87,West,271,5.0,8.0,68,0.00,,,0.00,meteohub,2013-06-28 22:27:00,
2013-06-28 18:32:00,87.3,75.9,29.87,West,261,3.0,7.0,69,0.00,,,0.00,meteohub,2013-06-28 22:32:00,
2013-06-28 18:37:00,86.7,75.7,29.87,WSW,253,3.0,7.0,70,0.00,,,0.00,meteohub,2013-06-28 22:37:00,
2013-06-28 18:42:00,87.1,76.1,29.87,WSW,248,2.0,7.0,70,0.00,,,0.00,meteohub,2013-06-28 22:42:00,
2013-06-28 18:47:00,87.1,76.5,29.87,West,268,2.0,7.0,71,0.00,,,0.00,meteohub,2013-06-28 22:47:00,
2013-06-28 18:52:00,86.7,75.7,29.87,WSW,252,1.0,7.0,70,0.00,,,0.00,meteohub,2013-06-28 22:52:00,
2013-06-28 18:57:00,87.1,76.1,29.87,WSW,238,0.0,7.0,70,0.00,,,0.00,meteohub,2013-06-28 22:57:00,
2013-06-28 19:02:00,87.1,76.5,29.87,WSW,251,1.0,7.0,71,0.00,,,0.00,meteohub,2013-06-28 23:02:00,
2013-06-28 19:07:00,86.7,76.1,29.87,WSW,241,1.0,6.0,71,0.00,,,0.00,meteohub,2013-06-28 23:07:00,
2013-06-28 19:13:00,86.5,76.5,29.87,WSW,251,3.0,6.0,72,0.00,,,0.00,meteohub,2013-06-28 23:13:00,
2013-06-28 19:18:00,86.2,75.7,29.87,WSW,246,3.0,8.0,71,0.00,,,0.00,meteohub,2013-06-28 23:18:00,
2013-06-28 19:23:00,85.6,75.6,29.87,WSW,248,1.0,8.0,72,0.00,,,0.00,meteohub,2013-06-28 23:23:00,
2013-06-28 19:28:00,85.5,75.7,29.87,SW,226,2.0,8.0,73,0.00,,,0.00,meteohub,2013-06-28 23:28:00,
2013-06-28 19:33:00,85.3,75.6,29.87,WSW,250,5.0,8.0,73,0.00,,,0.00,meteohub,2013-06-28 23:33:00,
2013-06-28 19:39:00,85.3,76.1,29.88,WSW,250,3.0,8.0,74,0.00,,,0.00,meteohub,2013-06-28 23:39:00,
2013-06-28 19:44:00,85.3,75.6,29.88,WSW,246,2.0,8.0,73,0.00,,,0.00,meteohub,2013-06-28 23:44:00,
2013-06-28 19:49:00,85.1,75.4,29.88,WSW,240,3.0,7.0,73,0.00,,,0.00,meteohub,2013-06-28 23:49:00,
2013-06-28 19:54:00,84.7,75.2,29.88,SW,223,4.0,7.0,73,0.00,,,0.00,meteohub,2013-06-28 23:54:00,
2013-06-28 19:59:00,84.7,75.6,29.88,SW,229,2.0,7.0,74,0.00,,,0.00,meteohub,2013-06-28 23:59:00,
2013-06-28 20:05:00,84.6,75.0,29.89,SW,236,0.0,7.0,73,0.00,,,0.00,meteohub,2013-06-29 00:05:00,
2013-06-28 20:10:00,84.7,75.2,29.89,WSW,258,0.0,7.0,73,0.00,,,0.00,meteohub,2013-06-29 00:10:00,
2013-06-28 20:15:00,84.7,75.2,29.89,WSW,257,3.0,7.0,73,0.00,,,0.00,meteohub,2013-06-29 00:15:00,
2013-06-28 20:20:00,84.4,74.8,29.89,WSW,247,0.0,7.0,73,0.00,,,0.00,meteohub,2013-06-29 00:20:00,
2013-06-28 20:25:00,84.4,75.2,29.89,WSW,242,6.0,7.0,74,0.00,,,0.00,meteohub,2013-06-29 00:25:00,
2013-06-28 20:30:00,84.0,74.8,29.89,WSW,242,1.0,7.0,74,0.00,,,0.00,meteohub,2013-06-29 00:30:00,
2013-06-28 20:35:00,84.0,75.2,29.89,WSW,249,1.0,6.0,75,0.00,,,0.00,meteohub,2013-06-29 00:35:00,
2013-06-28 20:40:00,84.0,75.2,29.89,WSW,249,0.0,5.0,75,0.00,,,0.00,meteohub,2013-06-29 00:40:00,
2013-06-28 20:45:00,84.0,75.2,29.89,WSW,249,1.0,5.0,75,0.00,,,0.00,meteohub,2013-06-29 00:45:00,
2013-06-28 20:50:00,83.8,75.0,29.89,WSW,250,3.0,4.0,75,0.00,,,0.00,meteohub,2013-06-29 00:50:00,
2013-06-28 20:55:00,83.7,75.2,29.89,WSW,250,1.0,5.0,76,0.00,,,0.00,meteohub,2013-06-29 00:55:00,
2013-06-28 21:00:00,83.7,75.7,29.89,WSW,250,1.0,5.0,77,0.00,,,0.00,meteohub,2013-06-29 01:00:00,
2013-06-28 21:05:00,83.5,75.6,29.89,WSW,250,2.0,5.0,77,0.00,,,0.00,meteohub,2013-06-29 01:05:00,
2013-06-28 21:11:00,83.1,75.2,29.89,WSW,250,2.0,5.0,77,0.00,,,0.00,meteohub,2013-06-29 01:11:00,
2013-06-28 21:16:00,83.3,75.4,29.89,WSW,251,0.0,5.0,77,0.00,,,0.00,meteohub,2013-06-29 01:16:00,
2013-06-28 21:21:00,83.3,75.4,29.89,WSW,252,3.0,6.0,77,0.00,,,0.00,meteohub,2013-06-29 01:21:00,
2013-06-28 21:26:00,83.1,75.2,29.90,WSW,250,1.0,6.0,77,0.00,,,0.00,meteohub,2013-06-29 01:26:00,
2013-06-28 21:31:00,82.9,75.0,29.90,WSW,250,0.0,4.0,77,0.00,,,0.00,meteohub,2013-06-29 01:31:00,
2013-06-28 21:36:00,82.9,75.0,29.90,WSW,250,1.0,4.0,77,0.00,,,0.00,meteohub,2013-06-29 01:36:00,
2013-06-28 21:41:00,82.9,75.4,29.90,WSW,250,0.0,5.0,78,0.00,,,0.00,meteohub,2013-06-29 01:41:00,
2013-06-28 21:47:00,82.9,75.0,29.90,WSW,250,0.0,5.0,77,0.00,,,0.00,meteohub,2013-06-29 01:47:00,
2013-06-28 21:52:00,83.1,75.2,29.90,WSW,254,0.0,5.0,77,0.00,,,0.00,meteohub,2013-06-29 01:52:00,
2013-06-28 21:57:00,83.1,75.2,29.90,WSW,254,1.0,5.0,77,0.00,,,0.00,meteohub,2013-06-29 01:57:00,
2013-06-28 22:02:00,82.9,75.0,29.90,WSW,254,0.0,5.0,77,0.00,,,0.00,meteohub,2013-06-29 02:02:00,
2013-06-28 22:07:00,82.9,75.0,29.90,WSW,254,0.0,4.0,77,0.00,,,0.00,meteohub,2013-06-29 02:07:00,
2013-06-28 22:12:00,82.9,75.4,29.90,WSW,254,0.0,3.0,78,0.00,,,0.00,meteohub,2013-06-29 02:12:00,
2013-06-28 22:17:00,82.9,75.4,29.90,WSW,254,3.0,4.0,78,0.00,,,0.00,meteohub,2013-06-29 02:17:00,
2013-06-28 22:22:00,82.9,75.4,29.90,WSW,246,1.0,6.0,78,0.00,,,0.00,meteohub,2013-06-29 02:22:00,
2013-06-28 22:27:00,82.9,75.4,29.90,WSW,246,1.0,6.0,78,0.00,,,0.00,meteohub,2013-06-29 02:27:00,
2013-06-28 22:32:00,82.9,75.4,29.90,WSW,246,0.0,6.0,78,0.00,,,0.00,meteohub,2013-06-29 02:32:00,
2013-06-28 22:37:00,82.9,75.4,29.90,WSW,246,1.0,6.0,78,0.00,,,0.00,meteohub,2013-06-29 02:37:00,
2013-06-28 22:42:00,83.1,75.6,29.90,WSW,246,0.0,6.0,78,0.00,,,0.00,meteohub,2013-06-29 02:42:00,
2013-06-28 22:47:00,83.1,75.6,29.90,WSW,246,2.0,6.0,78,0.00,,,0.00,meteohub,2013-06-29 02:47:00,
2013-06-28 22:52:00,83.1,75.6,29.90,WSW,244,4.0,5.0,78,0.00,,,0.00,meteohub,2013-06-29 02:52:00,
2013-06-28 22:57:00,83.1,75.6,29.90,SW,225,6.0,6.0,78,0.00,,,0.00,meteohub,2013-06-29 02:57:00,
2013-06-28 23:02:00,83.1,75.6,29.90,SW,225,1.0,6.0,78,0.00,,,0.00,meteohub,2013-06-29 03:02:00,
2013-06-28 23:07:00,83.1,75.6,29.89,SW,225,2.0,6.0,78,0.00,,,0.00,meteohub,2013-06-29 03:07:00,
2013-06-28 23:12:00,82.9,75.4,29.90,SW,225,0.0,6.0,78,0.00,,,0.00,meteohub,2013-06-29 03:12:00,
2013-06-28 23:17:00,82.9,75.4,29.90,SW,225,0.0,3.0,78,0.00,,,0.00,meteohub,2013-06-29 03:17:00,
2013-06-28 23:22:00,82.9,75.7,29.89,SW,225,3.0,3.0,79,0.00,,,0.00,meteohub,2013-06-29 03:22:00,
2013-06-28 23:27:00,82.9,75.4,29.89,SW,225,3.0,4.0,78,0.00,,,0.00,meteohub,2013-06-29 03:27:00,
2013-06-28 23:32:00,82.9,75.7,29.90,SW,225,2.0,5.0,79,0.00,,,0.00,meteohub,2013-06-29 03:32:00,
2013-06-28 23:37:00,82.9,75.7,29.90,SW,225,1.0,5.0,79,0.00,,,0.00,meteohub,2013-06-29 03:37:00,
2013-06-28 23:42:00,82.8,75.6,29.90,SW,225,2.0,5.0,79,0.00,,,0.00,meteohub,2013-06-29 03:42:00,
2013-06-28 23:47:00,82.8,75.9,29.90,SW,228,1.0,5.0,80,0.00,,,0.00,meteohub,2013-06-29 03:47:00,
2013-06-28 23:53:00,82.6,75.7,29.89,SW,228,0.0,5.0,80,0.00,,,0.00,meteohub,2013-06-29 03:53:00,
2013-06-28 23:58:00,82.6,75.7,29.89,SW,228,0.0,5.0,80,0.00,,,0.00,meteohub,2013-06-29 03:58:00,